Wetbulb
59.92 59.89 59.72 59.14 58.92 59.27 59.56 59.47 58.50 58.32 58.45 57.94 56.28 55.11 54.14 53.03 51.93 51.13 50.42 49.87 49.98 50.18 50.34 50.44 50.61 50.58 50.27 49.80 49.75 50.53 51.40 51.79 52.09 51.66 51.07 50.57 48.75 48.01 47.82 48.01 48.29 48.40 48.26 48.13 47.69 46.94 46.12 45.43 45.04 44.31 43.37 42.50 41.68 40.92 40.58 40.89 41.02 40.90 40.60 40.13 39.69 39.25 39.10 39.05 38.63 38.30 38.03 37.92 38.09
59.74 59.56 58.96 57.17 56.71 57.42 58.12 57.64 56.93 56.69 57.10 57.67 56.59 55.46 54.36 53.34 52.05 50.79 49.84 49.30 49.34 49.53 49.78 49.78 49.51 49.17 48.95 49.09 49.31 49.79 50.27 50.61 50.97 50.05 48.72 47.83 47.73 48.00 48.32 48.31 48.39 48.14 47.65 47.03 46.40 45.64 45.00 44.66 43.97 42.99 42.13 41.61 41.07 40.47 39.87 39.84 40.41 40.02 39.32 38.79 38.88 38.96 38.78 38.37 37.67 37.43 37.26 37.11 37.17
59.74 59.47 58.71 57.73 57.14 56.39 55.53 54.62 54.80 55.43 55.83 55.65 54.80 53.88 53.25 52.92 51.85 50.71 49.69 49.39 49.30 49.11 48.78 48.38 48.49 48.64 48.77 49.00 49.04 49.04 48.82 48.63 48.48 47.99 47.54 47.27 47.59 47.93 48.24 48.13 47.71 47.13 46.51 45.82 45.02 44.61 44.19 43.93 43.16 42.24 41.46 41.31 40.69 40.06 39.54 39.05 39.67 39.46 38.80 38.20 38.79 38.97 38.75 38.04 37.00 37.00 37.35 37.41 37.04
58.26 57.54 56.40 54.83 54.02 53.62 53.35 53.26 53.17 53.17 53.03 52.67 51.94 51.40 51.22 51.35 51.33 50.62 49.70 48.92 48.35 48.04 47.96 48.14 48.46 48.55 48.55 48.32 47.96 47.52 47.02 46.26 46.48 46.71 46.84 47.24 47.45 47.57 47.52 47.38 46.68 46.28 45.71 44.88 44.31 44.02 43.98 43.93 43.45 42.59 41.56 40.69 40.24 39.86 39.64 39.51 39.43 39.21 38.89 38.35 38.70 38.61 38.25 37.93 37.46 37.74 38.10 37.64 37.16
54.48 54.07 53.39 52.49 51.94 51.63 51.45 51.31 50.99 50.77 50.54 50.45 50.40 50.09 49.86 49.73 49.46 49.00 48.37 47.78 47.78 47.92 48.14 48.32 48.23 47.92 47.52 47.07 46.75 46.48 46.12 45.63 45.00 45.58 46.31 46.22 46.44 46.57 46.52 46.26 45.74 45.30 44.83 44.27 43.93 43.72 43.71 43.67 43.17 42.29 41.24 40.50 40.21 39.78 39.43 39.27 39.10 38.91 38.73 38.72 38.66 38.44 38.25 37.93 37.88 38.05 38.09 37.85 37.52
52.44 51.99 51.54 51.08 50.63 50.18 50.00 49.77 49.41 49.41 49.59 49.67 49.22 48.78 48.55 48.65 48.47 48.15 47.83 47.70 48.01 48.05 47.83 46.98 46.62 46.25 46.08 46.26 46.03 45.81 45.67 45.58 45.31 45.22 45.40 45.45 45.50 45.42 45.26 44.95 44.65 44.26 44.09 43.87 43.70 43.40 43.02 42.59 41.82 41.17 40.84 41.29 40.09 39.51 39.24 39.28 39.11 38.81 38.40 38.14 38.05 37.97 37.88 37.61 37.69 37.76 37.70 37.37 37.03
51.89 51.17 50.59 50.13 49.82 49.59 49.41 49.05 49.09 49.04 48.95 48.77 48.19 47.92 47.70 47.74 47.74 47.65 47.56 47.70 47.65 47.34 46.66 45.98 45.99 45.90 45.85 45.67 45.45 45.04 44.95 44.81 44.72 44.59 44.46 44.32 44.42 44.43 44.27 44.01 43.82 43.73 43.65 43.48 43.31 42.85 42.43 41.91 41.09 40.34 39.76 39.42 39.26 39.19 39.29 39.66 39.25 38.62 37.87 37.19 37.10 37.05 37.01 36.84 37.14 37.18 36.94 36.26 35.97
51.62 50.85 50.22 49.72 49.50 49.18 48.87 48.64 48.64 48.59 48.32 47.96 47.56 47.43 47.38 47.34 47.38 47.29 47.20 47.16 46.84 46.61 46.52 46.44 46.48 46.26 45.90 45.45 45.00 44.64 44.28 43.96 43.69 43.55 43.55 43.37 43.38 43.44 43.59 43.48 43.20 43.13 43.05 43.02 42.71 42.20 41.64 41.30 40.70 40.06 39.47 39.15 39.04 38.94 38.91 39.00 38.56 37.80 36.89 36.25 36.20 36.18 36.24 36.19 36.33 36.40 36.17 35.65 35.28
50.81 50.18 49.77 49.50 49.18 48.82 48.46 48.23 48.05 47.87 47.61 47.34 47.29 47.25 47.25 47.11 46.88 46.66 46.48 46.39 46.12 46.25 46.30 46.17 45.99 45.77 45.41 45.05 44.60 44.19 43.79 43.38 43.06 42.88 42.74 42.65 42.43 42.26 42.23 42.03 41.82 41.77 41.85 41.88 41.65 41.25 40.82 40.65 40.16 39.72 39.49 39.18 38.83 38.56 38.46 38.52 37.78 36.96 36.29 35.80 35.57 35.64 35.86 36.01 35.96 35.98 35.90 35.61 35.20
49.63 49.14 48.91 48.82 48.50 48.23 47.87 47.61 47.43 47.11 46.98 46.93 46.89 46.80 46.53 45.80 46.12 46.21 46.03 45.89 45.67 45.58 45.49 45.31 45.27 45.05 44.82 44.42 44.24 43.92 43.65 43.38 43.02 42.61 42.25 41.93 41.49 41.22 40.92 40.64 40.28 40.23 40.28 40.12 40.28 40.20 39.97 39.71 39.25 39.23 39.25 39.01 38.58 38.29 38.13 38.24 37.25 36.53 36.12 35.89 35.33 35.01 35.05 35.31 35.89 36.17 36.09 35.91 35.28
48.91 48.55 48.41 48.28 47.83 47.47 47.11 46.98 46.80 46.62 46.57 46.48 46.48 46.39 46.08 45.58 45.80 45.76 45.58 45.44 45.08 44.90 44.77 44.91 44.73 44.55 44.19 43.96 43.78 43.69 43.47 43.38 43.02 42.43 41.85 41.30 40.76 40.32 40.05 39.66 39.38 39.06 38.85 38.90 39.54 39.64 39.49 39.20 38.56 38.02 37.71 37.63 37.68 37.60 37.56 37.64 36.72 35.98 35.38 35.12 34.64 34.32 34.18 34.44 35.10 35.36 35.30 34.94 34.59
48.72 48.40 48.27 47.91 47.47 47.07 46.75 46.57 46.39 46.35 46.26 46.08 46.03 45.94 45.81 45.63 45.44 45.17 44.94 44.72 44.41 44.36 44.41 44.68 44.50 44.14 43.96 43.73 43.60 43.33 43.02 42.89 42.31 41.67 41.08 40.45 40.00 39.51 39.20 38.88 38.73 38.49 38.23 38.09 38.87 38.92 38.47 37.99 37.44 36.78 36.42 36.45 36.63 36.80 36.70 36.54 35.84 35.18 34.56 34.24 34.01 33.75 33.38 33.19 33.53 33.82 34.22 34.40 34.14
48.67 48.35 48.00 47.64 47.20 46.84 46.49 46.31 46.17 46.04 45.81 45.58 45.45 45.27 45.00 44.81 44.63 44.50 44.32 44.05 43.77 43.86 44.04 44.32 44.23 44.10 43.96 43.60 43.42 43.02 42.66 42.08 41.55 40.87 40.28 39.78 39.29 38.85 38.40 38.18 38.06 37.95 37.81 37.85 38.12 37.84 37.34 36.88 36.39 36.03 35.65 35.60 35.80 35.73 35.60 35.51 35.13 34.71 34.14 33.87 33.75 33.51 33.29 33.24 33.44 34.09 34.54 34.79 34.49
48.44 48.22 47.73 47.42 46.93 46.53 46.27 46.04 45.77 45.55 45.41 45.09 44.87 44.73 44.50 44.32 44.09 44.00 43.82 43.59 43.46 43.50 43.59 43.73 43.64 43.51 43.43 43.07 42.58 42.22 41.73 41.29 40.66 40.12 39.53 38.91 38.61 38.11 37.63 37.43 37.46 37.50 37.47 37.58 37.41 36.99 36.51 36.03 35.70 35.50 35.22 34.97 34.90 34.92 35.02 35.18 34.95 34.71 34.41 34.12 33.90 33.73 33.70 33.90 34.33 34.79 35.01 34.93 34.55
47.95 47.82 47.50 47.24 46.80 46.35 46.04 45.65 45.42 45.11 44.83 44.60 44.46 44.28 44.14 44.00 43.82 43.64 43.55 43.28 43.10 43.01 42.92 42.65 42.29 42.12 42.01 41.98 41.49 41.06 40.71 40.32 39.78 39.18 38.62 38.09 37.84 37.45 36.97 36.67 36.89 37.16 37.24 37.14 36.91 36.44 35.96 35.63 35.48 35.43 35.19 34.93 34.80 34.85 34.98 35.15 35.13 35.05 34.88 34.65 34.43 34.38 34.37 34.46 34.72 34.87 34.87 34.62 34.43
47.42 47.37 47.20 46.88 46.49 45.96 45.56 45.20 44.84 44.57 44.24 43.97 43.97 43.92 43.83 43.68 43.64 43.55 43.15 42.79 42.52 42.16 41.67 41.08 40.81 40.77 40.83 40.58 40.40 40.11 39.82 39.36 38.90 38.35 37.88 37.46 37.13 36.91 36.67 36.47 36.44 36.56 36.72 36.56 36.44 36.14 35.88 35.81 35.79 35.68 35.48 35.30 35.21 35.20 35.16 35.17 35.08 34.98 34.92 34.76 34.70 34.60 34.54 34.47 34.32 34.20 34.11 34.16 33.95
46.84 46.75 46.53 46.17 45.68 45.14 44.74 44.42 44.07 43.70 43.43 43.11 43.07 43.02 43.06 43.06 43.10 42.74 42.25 41.94 41.53 40.86 40.27 39.87 39.92 39.79 39.66 39.36 39.45 39.34 39.02 38.47 38.16 37.71 37.26 36.91 36.70 36.60 36.46 36.29 36.22 36.24 36.09 35.88 35.57 35.27 35.07 35.05 35.19 35.30 35.18 34.96 34.94 34.80 34.71 34.56 34.39 34.25 34.02 33.99 34.04 34.04 33.90 33.74 33.62 33.39 33.30 33.42 33.26
46.17 45.95 45.54 44.96 44.51 44.02 43.57 43.16 42.85 42.58 42.31 42.08 42.03 41.94 41.98 41.89 41.85 41.62 41.31 41.00 40.51 39.79 39.16 38.94 39.18 39.14 38.96 38.74 38.77 38.43 38.17 37.63 37.28 36.98 36.65 36.41 36.18 36.03 35.74 35.60 35.56 35.52 35.31 34.84 34.33 33.98 33.72 33.70 33.75 33.82 33.83 33.78 33.68 33.56 33.36 33.20 32.98 32.81 32.72 32.81 32.89 32.84 32.89 32.70 32.88 32.97 32.99 32.94 32.80
45.36 44.92 44.42 43.75 43.25 42.80 42.35 41.91 41.73 41.46 41.28 41.10 41.05 40.91 40.86 40.82 40.82 40.64 40.37 40.11 39.59 39.10 38.61 38.34 38.35 38.27 38.15 37.89 37.72 37.41 36.94 36.65 36.19 35.98 35.78 35.60 35.26 35.04 34.64 34.43 34.45 34.35 34.08 33.64 33.32 32.98 32.75 32.75 32.65 32.60 32.56 32.42 32.37 32.15 32.08 31.87 31.73 31.61 31.58 31.54 31.59 31.61 31.66 31.78 32.02 32.34 32.37 32.32 32.13
44.33 43.75 43.25 42.62 42.22 41.86 41.41 41.15 40.92 40.79 40.61 40.47 40.34 40.11 40.11 40.16 40.12 39.94 39.58 39.18 39.02 38.77 38.38 37.85 37.49 37.31 37.10 37.02 36.71 36.36 36.10 35.86 35.45 35.12 34.83 34.56 34.24 33.81 33.45 33.06 33.06 32.98 32.92 32.70 32.45 32.17 32.05 31.98 31.96 31.94 31.78 31.57 31.24 31.17 30.99 30.94 30.82 30.63 30.58 30.61 30.58 30.59 30.67 30.80 30.92 31.02 31.03 31.24 31.26
43.17 42.76 42.22 41.86 41.46 41.15 40.88 40.66 40.39 40.22 40.04 39.95 39.77 39.72 39.67 39.77 39.59 39.28 38.97 38.75 38.68 38.29 37.90 37.36 36.92 36.51 36.28 36.16 35.88 35.61 35.32 35.17 34.72 34.28 33.76 33.47 33.17 32.85 32.53 32.24 32.10 32.03 31.93 31.87 31.65 31.55 31.45 31.45 31.56 31.47 31.26 31.02 30.75 30.59 30.52 30.37 30.14 30.07 30.08 30.04 29.99 30.05 30.10 30.13 29.99 29.88 29.87 29.98 30.08
42.35 41.95 41.59 41.24 40.93 40.66 40.44 40.22 40.00 39.82 39.78 39.73 39.68 39.50 39.41 39.14 38.87 38.70 38.57 38.45 38.11 37.71 37.23 36.83 36.44 36.07 35.74 35.38 34.97 34.62 34.31 34.07 33.69 33.32 33.02 32.66 32.38 32.21 32.02 31.86 31.67 31.51 31.42 31.28 31.30 31.31 31.33 31.31 31.39 31.29 31.02 30.71 30.55 30.36 30.20 30.01 29.85 29.78 29.74 29.67 29.62 29.60 29.40 29.16 28.98 28.94 28.92 28.92 28.74
41.55 41.37 41.06 40.92 40.48 40.17 39.82 39.82 39.73 39.65 39.51 39.41 39.23 39.05 38.69 38.42 38.24 38.04 38.00 37.69 37.24 36.85 36.54 36.23 35.84 35.48 35.16 34.72 34.27 33.74 33.20 32.76 32.51 32.43 32.27 32.09 31.88 31.77 31.70 31.56 31.38 31.22 31.05 31.01 31.13 31.13 31.10 31.03 31.06 31.03 30.87 30.62 30.27 30.20 30.22 30.36 30.18 30.05 29.77 29.44 29.28 29.05 28.64 28.47 28.33 28.30 28.39 28.48 28.30
41.01 40.83 40.65 40.60 40.04 39.82 39.56 39.47 39.20 39.06 38.96 38.73 38.46 38.20 37.93 37.66 37.53 37.35 37.09 36.82 36.38 36.07 35.80 35.61 35.24 34.82 34.48 34.16 33.64 33.11 32.56 31.97 31.65 31.56 31.56 31.62 31.53 31.53 31.49 31.49 31.35 31.22 31.21 31.24 31.56 31.40 30.99 30.49 30.56 30.60 30.53 30.37 30.42 30.67 30.83 30.76 30.43 30.21 29.98 29.57 29.25 29.01 28.84 28.75 28.70 28.82 28.77 28.23 28.41
40.56 40.38 40.20 40.11 39.81 39.59 39.28 39.06 38.87 38.55 38.28 38.10 37.83 37.52 37.25 36.98 36.71 36.44 36.17 35.78 35.47 35.29 35.03 34.82 34.62 34.24 33.98 33.54 33.20 32.81 32.36 31.92 31.53 31.37 31.30 31.38 31.53 31.58 31.58 31.62 31.62 31.76 31.87 31.94 32.36 32.22 31.78 31.06 30.85 30.44 30.12 30.41 30.56 30.53 30.45 30.27 30.25 30.07 30.01 30.01 29.91 29.74 29.61 29.46 29.50 29.63 29.54 28.78 29.00
40.11 40.02 39.80 39.63 39.50 39.10 38.83 38.56 38.24 37.93 37.61 37.43 37.11 36.79 36.52 36.34 36.12 35.85 35.40 35.08 34.96 34.75 34.62 34.37 34.15 33.77 33.47 33.08 32.77 32.56 32.38 32.20 31.92 31.67 31.46 31.39 31.53 31.67 31.89 31.92 32.03 32.24 32.40 32.54 32.48 32.32 32.29 32.13 31.47 30.62 30.12 30.30 30.10 29.88 29.82 29.92 30.11 30.16 30.28 30.51 30.53 30.58 30.51 30.29 30.33 30.63 30.99 31.39 31.26
39.70 39.48 39.26 39.14 38.87 38.51 38.16 37.98 37.80 37.44 37.16 36.84 36.52 36.25 36.16 36.03 35.71 35.26 34.90 34.55 34.55 34.43 34.30 34.09 33.69 33.35 33.06 32.88 32.53 32.29 32.15 32.15 32.15 32.05 31.85 31.56 31.51 31.55 31.76 32.03 32.30 32.53 32.67 32.73 32.41 32.32 32.25 32.20 31.74 31.11 30.44 29.96 29.75 29.69 29.75 29.75 30.07 30.34 30.54 30.73 30.78 30.81 30.81 30.88 31.14 31.57 32.02 32.45 32.63
39.07 38.85 38.72 38.42 38.02 37.84 37.62 37.53 37.21 36.84 36.52 36.34 36.16 35.94 35.81 35.51 35.19 34.90 34.64 34.55 34.38 34.29 34.02 33.79 33.50 33.28 33.07 32.71 32.30 32.16 31.98 31.98 31.98 31.98 31.89 31.71 31.56 31.55 31.62 31.87 32.27 32.59 32.90 32.89 32.69 32.46 32.29 32.14 31.81 31.44 30.82 29.97 29.99 29.99 30.02 30.05 30.27 30.46 30.65 30.74 30.99 31.03 31.19 31.58 31.85 32.16 32.43 32.48 32.53
38.58 38.36 38.06 37.79 37.47 37.25 37.12 36.85 36.48 36.25 36.07 35.99 35.87 35.69 35.51 35.15 34.96 34.73 34.55 34.42 34.20 33.92 33.69 33.45 33.38 32.98 32.57 32.03 31.94 31.94 31.91 31.91 31.85 31.85 31.67 31.58 31.44 31.48 31.51 31.82 32.20 32.57 32.97 33.07 32.84 32.59 32.41 32.13 31.88 31.71 31.45 31.06 30.18 30.02 29.94 30.05 30.15 30.24 30.35 30.61 30.92 31.01 31.26 31.47 31.89 32.26 32.56 32.79 32.44
38.28 37.97 37.61 37.16 36.93 36.75 36.53 36.35 36.17 36.08 35.99 35.90 35.65 35.47 35.11 34.92 34.69 34.51 34.24 34.10 33.74 33.51 33.36 33.20 32.75 32.16 31.78 31.60 31.60 31.48 31.39 31.48 31.57 31.37 31.12 30.88 30.65 30.78 31.15 31.62 32.11 32.55 33.03 33.14 32.91 32.66 32.49 32.37 32.13 31.99 31.74 31.46 30.25 29.85 29.72 29.65 29.72 29.84 30.17 30.54 30.78 30.87 31.04 31.42 31.64 31.90 32.36 32.69 32.29
37.79 37.48 37.12 36.67 36.44 36.30 36.08 36.04 36.01 35.92 35.83 35.69 35.47 35.20 34.84 34.56 34.28 34.10 33.83 33.47 33.18 33.00 32.75 32.64 32.00 31.58 31.26 31.31 31.03 30.63 30.51 30.53 30.62 30.53 30.47 30.36 30.22 30.44 30.87 31.33 31.78 32.24 32.74 33.13 32.86 32.77 32.67 32.62 32.37 32.07 31.81 31.37 30.24 29.67 29.56 29.63 29.61 29.79 29.94 30.08 30.11 30.27 30.54 30.96 31.42 31.87 32.26 32.11 31.67
37.34 36.99 36.63 36.31 35.99 35.81 35.81 35.78 35.74 35.74 35.52 35.39 35.07 34.84 34.43 33.97 33.74 33.47 33.29 32.93 32.57 32.27 31.92 31.56 30.99 30.54 30.33 30.31 29.98 29.77 29.71 29.75 29.81 29.85 29.94 29.88 29.99 30.13 30.42 30.69 31.08 31.47 32.25 33.00 32.86 32.84 32.74 32.74 32.44 32.11 31.70 31.24 30.28 29.71 29.58 29.53 29.42 29.36 29.27 29.29 29.45 29.75 30.11 30.67 30.96 31.31 31.47 31.44 30.94
36.85 36.63 36.27 35.92 35.55 35.46 35.46 35.51 35.47 35.47 35.25 34.98 34.57 34.13 33.66 33.29 33.02 32.84 32.57 32.44 32.05 31.62 31.15 30.54 29.94 29.60 29.32 29.18 29.03 29.01 29.02 29.12 29.25 29.35 29.46 29.61 29.66 29.72 29.89 30.14 30.65 31.44 32.27 32.79 32.79 32.76 32.72 32.60 32.16 31.76 31.21 30.61 29.59 28.98 28.88 28.92 29.04 29.10 29.19 29.50 29.84 30.11 30.38 30.65 30.83 30.94 30.99 31.08 31.06
36.40 36.19 35.83 35.47 35.19 35.14 35.14 35.10 35.06 34.93 34.57 34.16 33.72 33.27 32.95 32.57 32.12 31.98 31.85 31.85 31.51 31.19 30.69 30.24 29.78 29.40 29.14 28.93 28.75 28.56 28.55 28.75 28.91 29.07 29.24 29.37 29.42 29.46 29.54 29.78 30.67 31.74 32.46 32.60 32.65 32.58 32.39 32.20 31.76 31.28 30.72 30.16 29.16 28.69 28.65 28.92 29.22 29.54 29.85 30.19 30.45 30.72 30.90 30.99 30.99 31.08 31.08 31.13 31.31
36.01 35.65 35.29 34.97 34.92 34.74 34.74 34.65 34.52 34.22 33.80 33.25 32.84 32.53 32.23 31.96 31.55 31.31 31.13 31.03 30.71 30.42 30.05 29.77 29.56 29.30 28.96 28.90 28.74 28.58 28.46 28.53 28.72 28.89 29.02 29.15 29.12 29.06 29.13 29.38 30.28 31.42 32.35 32.49 32.39 32.28 32.09 31.86 31.48 31.07 30.52 29.70 29.16 28.96 29.03 29.24 29.74 30.01 30.31 30.53 30.83 31.04 31.35 31.53 31.49 31.46 31.37 31.26 31.08
35.75 35.25 34.84 34.61 34.52 34.47 34.29 34.20 33.80 33.45 32.95 32.39 32.03 31.67 31.49 31.19 30.97 30.81 30.53 30.26 29.89 29.43 29.09 28.99 28.88 28.69 28.40 28.27 28.37 28.38 28.38 28.37 28.56 28.74 28.94 28.94 28.72 28.56 28.62 28.99 29.90 31.06 32.06 32.20 32.13 32.02 31.86 31.60 31.28 30.96 30.43 29.62 29.28 29.23 29.40 29.73 29.92 30.05 30.12 30.33 30.47 30.96 31.37 31.69 31.72 31.69 31.63 31.33 31.28
35.44 35.09 34.68 34.30 34.16 34.02 33.89 33.68 33.23 32.64 32.09 31.58 31.19 30.85 30.63 30.33 30.20 30.22 30.10 29.74 29.10 28.53 28.23 28.13 27.95 27.75 27.62 27.70 27.80 28.10 28.36 28.49 28.55 28.56 28.65 28.60 28.38 28.24 28.28 28.66 29.41 30.38 31.25 31.94 31.95 31.83 31.72 31.46 31.23 30.80 30.11 29.18 29.07 29.16 29.27 29.46 29.52 29.43 29.35 29.40 29.63 30.11 30.74 31.35 31.74 31.94 31.81 31.42 31.28
35.35 34.92 34.55 34.09 33.89 33.72 33.50 33.19 32.42 31.74 31.24 30.85 30.56 30.37 30.17 29.89 29.71 29.73 29.65 29.25 28.47 27.77 27.48 27.33 27.23 27.27 27.40 27.52 27.65 27.93 28.20 28.45 28.38 28.33 28.19 28.07 28.02 27.97 28.02 28.31 28.93 29.71 30.67 31.62 31.83 31.78 31.72 31.56 31.28 30.73 29.89 28.68 28.68 28.84 28.88 28.85 28.76 28.68 28.57 28.53 28.64 29.10 29.58 30.19 30.81 31.42 31.76 31.63 31.51
35.00 34.78 34.38 34.01 33.68 33.32 32.87 32.30 31.62 31.08 30.60 30.35 30.21 30.12 29.98 29.67 29.46 29.35 29.22 28.83 28.26 27.54 27.18 26.90 26.88 27.13 27.46 27.70 27.71 27.84 28.00 28.31 28.31 28.29 28.21 28.07 28.20 28.21 28.25 28.13 28.75 29.57 30.45 31.55 31.90 31.86 31.88 31.83 31.53 31.03 30.20 28.72 28.56 28.55 28.45 28.31 28.20 28.17 28.10 28.16 28.21 28.37 28.70 29.19 29.63 30.22 30.74 31.46 32.21
34.73 34.60 34.21 33.71 33.21 32.62 32.03 31.44 30.99 30.71 30.42 30.16 29.87 29.56 29.37 29.12 28.97 28.86 28.80 28.40 28.02 27.56 27.19 26.89 27.03 27.27 27.57 27.69 27.55 27.49 27.62 28.03 28.32 28.53 28.66 28.71 28.99 29.26 29.10 28.47 29.03 29.63 30.56 31.70 32.04 32.04 32.07 32.04 31.74 31.12 30.20 28.64 28.34 28.27 28.17 28.00 27.81 27.73 27.74 27.83 27.95 28.02 28.30 28.51 28.78 29.01 29.25 29.90 30.89
34.59 34.19 33.62 33.12 32.58 31.87 31.37 30.78 30.47 30.33 30.16 29.77 29.38 29.05 28.86 28.76 28.45 28.25 28.09 27.73 27.58 27.41 27.21 27.05 27.06 27.18 27.31 27.37 27.12 26.94 26.82 27.10 27.60 28.08 28.53 28.78 29.27 29.57 29.57 29.07 29.50 30.05 30.71 31.62 32.13 32.20 32.07 31.97 31.62 31.13 30.07 28.48 28.07 28.06 28.05 27.73 27.37 27.23 27.21 27.44 27.64 27.82 27.97 28.13 28.32 28.47 28.43 28.61 28.99
MSLP
999.81 1000.09 1000.45 1000.81 1001.13 1001.45 1001.73 1002.01 1002.37 1002.73 1003.17 1003.61 1004.05 1004.41 1004.73 1004.97 1005.13 1005.13 1005.01 1004.77 1004.61 1004.65 1004.85 1005.09 1005.37 1005.73 1006.17 1006.77 1007.05 1007.13 1007.21 1007.57 1007.93 1008.29 1008.57 1008.53 1008.45 1008.45 1008.53 1008.77 1008.97 1009.25 1009.73 1010.41 1011.01 1011.65 1012.21 1012.61 1013.05 1013.73 1014.41 1014.93 1015.25 1015.37 1015.33 1015.17 1015.05 1015.13 1015.33 1015.65 1016.01 1016.29 1016.49 1016.77 1017.13 1017.37 1017.57 1017.81 1018.05
999.89 1000.21 1000.61 1000.97 1001.29 1001.61 1001.89 1002.17 1002.45 1002.77 1003.13 1003.45 1003.77 1004.21 1004.73 1005.17 1005.45 1005.61 1005.57 1005.45 1005.25 1005.17 1005.29 1005.57 1005.85 1006.05 1006.45 1007.09 1007.53 1007.81 1008.01 1008.33 1008.69 1009.17 1009.53 1009.49 1009.21 1008.97 1008.93 1009.09 1009.09 1009.33 1009.81 1010.45 1011.05 1011.65 1012.13 1012.45 1012.93 1013.53 1014.17 1014.77 1015.17 1015.41 1015.45 1015.41 1015.25 1015.33 1015.53 1015.85 1016.13 1016.37 1016.61 1016.97 1017.29 1017.49 1017.69 1017.89 1018.13
1000.01 1000.37 1000.73 1001.09 1001.45 1001.77 1002.09 1002.37 1002.61 1002.89 1003.09 1003.33 1003.61 1004.05 1004.61 1005.17 1005.65 1005.89 1006.01 1005.97 1005.81 1005.73 1005.73 1005.93 1006.17 1006.29 1006.49 1006.97 1007.57 1008.05 1008.45 1008.85 1009.25 1009.73 1010.09 1010.17 1009.93 1009.61 1009.37 1009.33 1009.33 1009.57 1010.09 1010.73 1011.25 1011.69 1012.05 1012.41 1012.89 1013.45 1014.01 1014.61 1015.01 1015.37 1015.57 1015.65 1015.53 1015.57 1015.73 1016.01 1016.21 1016.45 1016.77 1017.13 1017.37 1017.57 1017.73 1017.93 1018.13
1000.29 1000.57 1000.97 1001.41 1001.73 1002.01 1002.29 1002.53 1002.77 1003.01 1003.21 1003.37 1003.61 1004.01 1004.61 1005.29 1005.93 1006.33 1006.57 1006.65 1006.49 1006.29 1006.17 1006.17 1006.33 1006.49 1006.65 1006.89 1007.41 1008.05 1008.65 1009.05 1009.49 1009.97 1010.37 1010.61 1010.53 1010.25 1009.85 1009.61 1009.69 1010.01 1010.53 1011.09 1011.53 1011.89 1012.17 1012.49 1013.01 1013.53 1014.05 1014.61 1015.01 1015.33 1015.57 1015.73 1015.73 1015.81 1015.97 1016.17 1016.29 1016.57 1016.89 1017.17 1017.41 1017.53 1017.73 1018.01 1018.17
1000.69 1000.97 1001.33 1001.65 1002.05 1002.33 1002.57 1002.81 1003.09 1003.33 1003.45 1003.45 1003.57 1003.81 1004.37 1005.21 1006.13 1006.85 1007.25 1007.37 1007.17 1006.89 1006.57 1006.41 1006.53 1006.77 1006.97 1007.01 1007.33 1007.81 1008.45 1009.09 1009.69 1010.21 1010.61 1010.89 1011.05 1010.85 1010.41 1010.05 1010.17 1010.53 1011.01 1011.53 1011.93 1012.17 1012.37 1012.73 1013.25 1013.77 1014.21 1014.61 1015.01 1015.41 1015.61 1015.77 1015.89 1016.01 1016.21 1016.37 1016.53 1016.69 1016.89 1017.17 1017.37 1017.57 1017.73 1018.01 1018.29
1000.97 1001.25 1001.57 1001.89 1002.29 1002.61 1002.89 1003.17 1003.37 1003.57 1003.65 1003.69 1003.73 1003.73 1003.93 1004.61 1005.89 1007.01 1007.73 1007.97 1007.85 1007.49 1007.09 1006.81 1006.81 1007.01 1007.13 1007.17 1007.29 1007.73 1008.45 1009.29 1009.97 1010.41 1010.73 1011.17 1011.49 1011.57 1011.29 1010.89 1010.73 1010.97 1011.49 1012.05 1012.33 1012.53 1012.69 1013.01 1013.53 1014.01 1014.37 1014.69 1015.13 1015.49 1015.73 1015.77 1015.89 1016.13 1016.45 1016.69 1016.81 1016.89 1017.01 1017.25 1017.45 1017.61 1017.81 1018.05 1018.33
1000.97 1001.33 1001.73 1002.09 1002.45 1002.77 1003.09 1003.33 1003.45 1003.73 1004.01 1004.05 1004.01 1003.85 1003.73 1003.97 1005.17 1006.73 1007.89 1008.41 1008.45 1008.17 1007.73 1007.33 1007.17 1007.13 1007.17 1007.21 1007.45 1008.01 1008.77 1009.61 1010.17 1010.57 1010.93 1011.45 1012.01 1012.29 1012.17 1011.77 1011.45 1011.65 1012.13 1012.45 1012.69 1012.89 1013.01 1013.21 1013.69 1014.13 1014.45 1014.77 1015.21 1015.57 1015.73 1015.77 1015.93 1016.17 1016.49 1016.85 1017.01 1017.13 1017.21 1017.37 1017.49 1017.69 1017.89 1018.17 1018.45
1000.85 1001.21 1001.61 1002.01 1002.37 1002.73 1002.97 1003.17 1003.41 1003.81 1004.21 1004.45 1004.41 1004.25 1004.01 1003.85 1004.49 1005.93 1007.49 1008.49 1008.85 1008.73 1008.29 1007.77 1007.45 1007.33 1007.33 1007.41 1007.81 1008.45 1009.17 1009.81 1010.37 1010.77 1011.17 1011.65 1012.37 1012.81 1012.77 1012.45 1012.33 1012.57 1012.85 1013.01 1013.17 1013.25 1013.33 1013.49 1013.85 1014.17 1014.53 1014.89 1015.29 1015.61 1015.77 1015.85 1015.97 1016.17 1016.53 1016.89 1017.17 1017.29 1017.37 1017.49 1017.61 1017.81 1018.05 1018.33 1018.61
1001.01 1001.33 1001.61 1001.89 1002.13 1002.41 1002.69 1002.89 1003.29 1003.81 1004.33 1004.65 1004.73 1004.57 1004.33 1004.17 1004.29 1005.29 1006.81 1008.21 1008.93 1009.01 1008.65 1008.17 1007.81 1007.61 1007.61 1007.73 1008.17 1008.77 1009.41 1010.01 1010.53 1010.89 1011.21 1011.61 1012.45 1013.05 1013.33 1013.25 1013.33 1013.49 1013.65 1013.77 1013.81 1013.73 1013.69 1013.85 1014.13 1014.37 1014.65 1014.93 1015.33 1015.65 1015.81 1015.85 1015.93 1016.17 1016.53 1016.89 1017.17 1017.37 1017.49 1017.57 1017.69 1017.89 1018.13 1018.41 1018.73
1001.41 1001.73 1001.93 1002.09 1002.21 1002.37 1002.53 1002.77 1003.25 1003.85 1004.45 1004.81 1005.01 1004.93 1004.73 1004.57 1004.49 1005.13 1006.33 1007.81 1008.73 1009.01 1008.85 1008.45 1008.13 1007.93 1007.89 1008.05 1008.53 1009.09 1009.65 1010.25 1010.69 1010.93 1011.17 1011.53 1012.37 1013.17 1013.65 1013.89 1014.01 1014.17 1014.37 1014.53 1014.49 1014.29 1014.13 1014.17 1014.45 1014.77 1015.05 1015.33 1015.61 1015.77 1015.89 1015.89 1015.93 1016.17 1016.53 1016.81 1017.09 1017.33 1017.61 1017.81 1017.97 1018.13 1018.29 1018.49 1018.73
1001.61 1001.93 1002.17 1002.33 1002.49 1002.61 1002.69 1002.89 1003.37 1003.97 1004.53 1004.97 1005.21 1005.25 1005.13 1005.01 1004.93 1005.33 1006.29 1007.61 1008.57 1008.97 1008.97 1008.65 1008.29 1008.05 1008.05 1008.37 1008.85 1009.33 1009.89 1010.37 1010.77 1010.93 1011.09 1011.45 1012.17 1013.01 1013.77 1014.25 1014.49 1014.69 1014.89 1015.01 1015.01 1014.85 1014.69 1014.73 1014.93 1015.29 1015.61 1015.85 1015.97 1016.05 1016.09 1016.01 1016.01 1016.17 1016.53 1016.89 1017.13 1017.41 1017.73 1018.05 1018.29 1018.49 1018.65 1018.73 1018.89
1001.81 1002.09 1002.29 1002.45 1002.61 1002.69 1002.85 1003.09 1003.57 1004.13 1004.65 1005.05 1005.33 1005.41 1005.41 1005.33 1005.33 1005.73 1006.61 1007.77 1008.69 1009.13 1009.13 1008.81 1008.37 1008.09 1008.21 1008.73 1009.17 1009.61 1010.01 1010.41 1010.69 1010.89 1011.09 1011.45 1012.01 1012.81 1013.69 1014.37 1014.85 1015.17 1015.33 1015.41 1015.33 1015.33 1015.33 1015.37 1015.53 1015.77 1016.01 1016.21 1016.33 1016.41 1016.33 1016.21 1016.17 1016.37 1016.73 1017.01 1017.29 1017.61 1017.97 1018.33 1018.61 1018.81 1018.93 1019.01 1019.13
1002.01 1002.29 1002.53 1002.61 1002.69 1002.77 1003.01 1003.33 1003.77 1004.29 1004.73 1005.09 1005.29 1005.45 1005.49 1005.61 1005.69 1006.09 1006.89 1007.97 1008.81 1009.25 1009.29 1009.01 1008.61 1008.33 1008.45 1008.93 1009.41 1009.81 1010.17 1010.33 1010.45 1010.65 1011.01 1011.49 1012.01 1012.73 1013.61 1014.41 1015.01 1015.45 1015.65 1015.73 1015.69 1015.73 1015.89 1016.01 1016.13 1016.21 1016.33 1016.53 1016.61 1016.69 1016.61 1016.49 1016.49 1016.65 1016.93 1017.29 1017.53 1017.89 1018.21 1018.61 1018.85 1018.97 1019.05 1019.17 1019.33
1002.29 1002.49 1002.69 1002.81 1002.85 1002.97 1003.17 1003.57 1004.01 1004.45 1004.85 1005.13 1005.25 1005.33 1005.45 1005.73 1005.93 1006.33 1007.01 1007.97 1008.69 1009.05 1009.13 1009.09 1009.01 1008.89 1008.89 1009.13 1009.53 1009.93 1010.25 1010.33 1010.41 1010.53 1010.89 1011.45 1012.13 1012.89 1013.73 1014.45 1015.01 1015.45 1015.77 1015.93 1015.97 1016.01 1016.21 1016.45 1016.57 1016.61 1016.61 1016.73 1016.89 1016.93 1016.89 1016.89 1016.89 1017.01 1017.21 1017.49 1017.81 1018.13 1018.45 1018.73 1018.93 1019.01 1019.17 1019.33 1019.45
1002.57 1002.65 1002.77 1002.89 1002.97 1003.13 1003.45 1003.85 1004.29 1004.73 1005.01 1005.21 1005.29 1005.25 1005.33 1005.61 1005.93 1006.37 1007.01 1007.89 1008.45 1008.77 1008.89 1009.09 1009.33 1009.45 1009.49 1009.49 1009.69 1010.01 1010.33 1010.53 1010.57 1010.61 1010.93 1011.49 1012.25 1013.05 1013.85 1014.45 1014.89 1015.33 1015.65 1015.93 1016.09 1016.25 1016.45 1016.73 1016.81 1016.85 1016.89 1016.97 1017.09 1017.21 1017.29 1017.29 1017.33 1017.41 1017.57 1017.81 1018.05 1018.33 1018.65 1018.89 1019.01 1019.13 1019.25 1019.41 1019.61
1002.77 1002.77 1002.81 1002.89 1003.01 1003.33 1003.69 1004.17 1004.61 1005.01 1005.29 1005.41 1005.41 1005.37 1005.45 1005.61 1005.93 1006.41 1007.01 1007.73 1008.25 1008.61 1008.85 1009.09 1009.41 1009.73 1009.93 1009.97 1010.01 1010.21 1010.53 1010.77 1010.89 1010.97 1011.21 1011.73 1012.41 1013.17 1013.85 1014.41 1014.81 1015.17 1015.53 1015.89 1016.17 1016.45 1016.65 1016.81 1016.89 1017.01 1017.17 1017.29 1017.45 1017.57 1017.65 1017.69 1017.73 1017.85 1018.01 1018.17 1018.37 1018.61 1018.81 1018.97 1019.13 1019.25 1019.37 1019.49 1019.69
1003.01 1002.89 1002.85 1002.93 1003.17 1003.49 1003.89 1004.41 1004.89 1005.25 1005.45 1005.61 1005.61 1005.65 1005.77 1005.93 1006.29 1006.69 1007.09 1007.49 1007.93 1008.37 1008.81 1009.17 1009.45 1009.81 1010.13 1010.29 1010.41 1010.57 1010.85 1011.09 1011.25 1011.41 1011.65 1012.05 1012.61 1013.21 1013.85 1014.37 1014.81 1015.17 1015.53 1015.89 1016.21 1016.49 1016.69 1016.81 1016.97 1017.17 1017.37 1017.61 1017.77 1017.89 1018.01 1018.01 1018.13 1018.25 1018.37 1018.53 1018.69 1018.85 1019.01 1019.17 1019.33 1019.45 1019.53 1019.65 1019.81
1003.17 1002.97 1002.93 1003.13 1003.37 1003.73 1004.09 1004.53 1004.97 1005.37 1005.65 1005.85 1005.93 1006.01 1006.17 1006.41 1006.73 1007.05 1007.33 1007.57 1007.85 1008.29 1008.77 1009.25 1009.61 1009.89 1010.13 1010.41 1010.69 1010.93 1011.17 1011.41 1011.61 1011.85 1012.05 1012.37 1012.81 1013.33 1013.89 1014.45 1014.93 1015.33 1015.61 1015.89 1016.21 1016.45 1016.61 1016.77 1017.01 1017.33 1017.65 1017.89 1018.05 1018.21 1018.29 1018.37 1018.45 1018.61 1018.73 1018.89 1019.01 1019.17 1019.29 1019.41 1019.49 1019.61 1019.73 1019.85 1020.01
1003.33 1003.13 1003.09 1003.29 1003.57 1003.89 1004.17 1004.57 1005.01 1005.41 1005.81 1006.13 1006.33 1006.53 1006.73 1006.93 1007.13 1007.41 1007.69 1007.97 1008.17 1008.45 1008.89 1009.41 1009.85 1010.13 1010.29 1010.53 1010.89 1011.21 1011.49 1011.73 1011.93 1012.17 1012.41 1012.73 1013.09 1013.53 1014.01 1014.61 1015.13 1015.49 1015.77 1016.01 1016.21 1016.41 1016.61 1016.89 1017.17 1017.57 1017.89 1018.13 1018.29 1018.45 1018.61 1018.73 1018.85 1018.97 1019.09 1019.21 1019.33 1019.45 1019.57 1019.65 1019.73 1019.85 1019.97 1020.09 1020.25
1003.49 1003.37 1003.33 1003.45 1003.61 1003.89 1004.25 1004.61 1005.05 1005.53 1006.01 1006.37 1006.69 1006.97 1007.21 1007.45 1007.57 1007.69 1007.89 1008.25 1008.57 1008.81 1009.09 1009.57 1010.01 1010.37 1010.61 1010.73 1011.05 1011.45 1011.77 1012.01 1012.17 1012.45 1012.73 1013.05 1013.45 1013.85 1014.29 1014.73 1015.21 1015.61 1015.89 1016.05 1016.21 1016.45 1016.77 1017.13 1017.49 1017.77 1018.01 1018.25 1018.45 1018.69 1018.93 1019.13 1019.29 1019.41 1019.49 1019.61 1019.69 1019.77 1019.89 1019.97 1020.05 1020.17 1020.29 1020.33 1020.45
1003.65 1003.57 1003.53 1003.61 1003.73 1004.01 1004.37 1004.81 1005.29 1005.77 1006.25 1006.61 1006.97 1007.25 1007.53 1007.81 1007.93 1008.01 1008.17 1008.45 1008.81 1009.13 1009.45 1009.77 1010.17 1010.49 1010.73 1010.97 1011.25 1011.61 1012.01 1012.29 1012.53 1012.81 1013.13 1013.45 1013.81 1014.17 1014.53 1014.85 1015.25 1015.61 1015.93 1016.17 1016.29 1016.61 1017.01 1017.45 1017.81 1018.01 1018.17 1018.37 1018.65 1018.97 1019.25 1019.53 1019.73 1019.85 1019.89 1020.01 1020.05 1020.17 1020.25 1020.33 1020.45 1020.53 1020.61 1020.61 1020.61
1003.77 1003.77 1003.77 1003.89 1004.09 1004.37 1004.73 1005.17 1005.61 1006.01 1006.45 1006.85 1007.17 1007.45 1007.69 1008.01 1008.21 1008.37 1008.53 1008.73 1009.01 1009.41 1009.77 1010.09 1010.41 1010.65 1010.89 1011.09 1011.41 1011.77 1012.17 1012.57 1012.89 1013.21 1013.57 1013.89 1014.21 1014.49 1014.73 1015.01 1015.37 1015.81 1016.17 1016.45 1016.61 1016.89 1017.25 1017.61 1017.89 1018.13 1018.33 1018.65 1019.01 1019.33 1019.57 1019.81 1020.05 1020.17 1020.29 1020.37 1020.45 1020.49 1020.61 1020.69 1020.77 1020.77 1020.77 1020.77 1020.73
1003.81 1003.97 1004.13 1004.29 1004.53 1004.85 1005.17 1005.53 1005.89 1006.25 1006.61 1007.01 1007.33 1007.61 1007.89 1008.17 1008.45 1008.61 1008.85 1009.01 1009.33 1009.69 1010.05 1010.45 1010.73 1010.97 1011.17 1011.33 1011.61 1011.89 1012.29 1012.73 1013.17 1013.61 1013.93 1014.21 1014.53 1014.81 1015.01 1015.25 1015.61 1016.05 1016.53 1016.81 1017.01 1017.21 1017.41 1017.65 1017.89 1018.21 1018.61 1019.09 1019.41 1019.61 1019.85 1020.05 1020.29 1020.45 1020.57 1020.65 1020.73 1020.81 1020.89 1020.97 1021.01 1020.93 1020.89 1020.85 1020.81
1003.89 1004.09 1004.33 1004.61 1004.93 1005.29 1005.57 1005.85 1006.17 1006.49 1006.85 1007.17 1007.49 1007.81 1008.05 1008.29 1008.61 1008.85 1009.09 1009.33 1009.61 1009.97 1010.37 1010.77 1011.09 1011.33 1011.45 1011.65 1011.89 1012.13 1012.45 1012.85 1013.33 1013.73 1014.17 1014.45 1014.73 1015.01 1015.33 1015.61 1016.01 1016.45 1016.89 1017.17 1017.33 1017.37 1017.41 1017.57 1017.93 1018.45 1019.01 1019.45 1019.73 1019.89 1020.05 1020.25 1020.45 1020.61 1020.73 1020.81 1020.89 1021.01 1021.05 1021.09 1021.05 1020.97 1020.89 1020.85 1020.77
1004.05 1004.29 1004.61 1004.89 1005.25 1005.57 1005.85 1006.13 1006.41 1006.73 1007.01 1007.33 1007.61 1007.89 1008.21 1008.45 1008.73 1009.01 1009.29 1009.61 1009.93 1010.29 1010.65 1011.05 1011.37 1011.61 1011.77 1011.97 1012.17 1012.41 1012.65 1012.97 1013.33 1013.73 1014.17 1014.61 1014.89 1015.21 1015.61 1016.05 1016.49 1016.89 1017.17 1017.37 1017.37 1017.33 1017.33 1017.61 1018.17 1018.81 1019.37 1019.73 1019.97 1020.09 1020.21 1020.37 1020.53 1020.65 1020.77 1020.89 1020.93 1021.01 1021.09 1021.13 1021.01 1020.93 1020.85 1020.73 1020.73
1004.33 1004.61 1004.89 1005.17 1005.45 1005.73 1006.05 1006.37 1006.65 1006.93 1007.25 1007.53 1007.81 1008.09 1008.37 1008.61 1008.89 1009.17 1009.45 1009.81 1010.17 1010.57 1010.89 1011.29 1011.61 1011.81 1012.01 1012.21 1012.45 1012.69 1012.93 1013.21 1013.45 1013.81 1014.21 1014.73 1015.13 1015.53 1015.97 1016.45 1016.89 1017.17 1017.37 1017.45 1017.33 1017.29 1017.45 1017.81 1018.45 1019.09 1019.61 1019.97 1020.17 1020.25 1020.33 1020.45 1020.61 1020.73 1020.77 1020.85 1020.89 1020.97 1021.01 1021.01 1020.93 1020.81 1020.73 1020.65 1020.61
1004.61 1004.89 1005.17 1005.41 1005.69 1005.97 1006.29 1006.57 1006.85 1007.13 1007.45 1007.73 1007.97 1008.25 1008.49 1008.77 1009.05 1009.33 1009.65 1010.01 1010.41 1010.73 1011.09 1011.45 1011.77 1012.01 1012.25 1012.41 1012.61 1012.85 1013.17 1013.53 1013.81 1014.09 1014.45 1014.89 1015.37 1015.85 1016.29 1016.73 1017.05 1017.29 1017.37 1017.33 1017.33 1017.45 1017.73 1018.17 1018.73 1019.33 1019.73 1020.01 1020.21 1020.29 1020.41 1020.49 1020.61 1020.73 1020.81 1020.85 1020.89 1020.89 1020.89 1020.81 1020.69 1020.61 1020.57 1020.57 1020.53
1004.81 1005.13 1005.41 1005.61 1005.89 1006.21 1006.49 1006.77 1007.05 1007.33 1007.61 1007.89 1008.13 1008.37 1008.65 1008.93 1009.21 1009.53 1009.85 1010.17 1010.57 1010.89 1011.29 1011.69 1011.97 1012.17 1012.41 1012.61 1012.81 1013.09 1013.41 1013.73 1014.09 1014.45 1014.81 1015.21 1015.61 1016.05 1016.49 1016.85 1017.05 1017.17 1017.25 1017.33 1017.49 1017.73 1018.13 1018.61 1019.01 1019.45 1019.85 1020.09 1020.21 1020.33 1020.45 1020.57 1020.69 1020.73 1020.77 1020.77 1020.77 1020.77 1020.73 1020.61 1020.49 1020.45 1020.41 1020.45 1020.45
1005.01 1005.29 1005.57 1005.77 1006.09 1006.41 1006.73 1006.97 1007.25 1007.49 1007.73 1008.01 1008.25 1008.49 1008.77 1009.05 1009.37 1009.69 1010.01 1010.29 1010.65 1011.01 1011.41 1011.85 1012.09 1012.29 1012.53 1012.81 1013.13 1013.41 1013.73 1014.01 1014.33 1014.69 1015.05 1015.45 1015.85 1016.17 1016.45 1016.73 1016.89 1017.05 1017.21 1017.41 1017.73 1018.17 1018.57 1018.93 1019.33 1019.61 1019.89 1020.09 1020.25 1020.41 1020.57 1020.65 1020.69 1020.73 1020.73 1020.73 1020.69 1020.61 1020.53 1020.45 1020.29 1020.29 1020.29 1020.29 1020.29
1005.17 1005.41 1005.69 1005.97 1006.25 1006.57 1006.89 1007.13 1007.37 1007.61 1007.89 1008.17 1008.45 1008.69 1008.89 1009.21 1009.53 1009.85 1010.17 1010.45 1010.77 1011.17 1011.49 1011.85 1012.13 1012.41 1012.73 1013.01 1013.33 1013.69 1014.01 1014.33 1014.61 1014.89 1015.17 1015.57 1015.85 1016.17 1016.45 1016.61 1016.77 1017.01 1017.33 1017.69 1018.09 1018.53 1018.89 1019.25 1019.53 1019.77 1020.01 1020.21 1020.41 1020.53 1020.61 1020.69 1020.69 1020.65 1020.61 1020.61 1020.57 1020.45 1020.33 1020.25 1020.21 1020.17 1020.21 1020.25 1020.29
1005.33 1005.57 1005.77 1006.05 1006.33 1006.69 1007.01 1007.29 1007.53 1007.77 1008.05 1008.29 1008.57 1008.81 1009.05 1009.37 1009.73 1010.05 1010.33 1010.65 1011.01 1011.37 1011.69 1011.89 1012.17 1012.53 1012.89 1013.25 1013.61 1013.89 1014.21 1014.53 1014.81 1015.05 1015.33 1015.57 1015.81 1016.09 1016.33 1016.61 1016.85 1017.13 1017.49 1017.93 1018.37 1018.77 1019.13 1019.41 1019.65 1019.89 1020.13 1020.33 1020.49 1020.61 1020.65 1020.61 1020.61 1020.53 1020.49 1020.45 1020.41 1020.29 1020.25 1020.21 1020.21 1020.25 1020.29 1020.29 1020.29
1005.49 1005.69 1005.89 1006.17 1006.49 1006.85 1007.17 1007.45 1007.73 1007.93 1008.17 1008.45 1008.73 1008.97 1009.25 1009.57 1009.93 1010.29 1010.61 1010.89 1011.25 1011.57 1011.85 1012.13 1012.45 1012.81 1013.21 1013.57 1013.85 1014.13 1014.41 1014.65 1014.93 1015.21 1015.45 1015.61 1015.85 1016.17 1016.45 1016.73 1017.01 1017.37 1017.77 1018.17 1018.61 1018.93 1019.25 1019.49 1019.73 1019.97 1020.21 1020.41 1020.53 1020.61 1020.61 1020.57 1020.49 1020.45 1020.41 1020.37 1020.29 1020.25 1020.25 1020.29 1020.33 1020.41 1020.45 1020.45 1020.45
1005.73 1005.89 1006.05 1006.33 1006.69 1007.01 1007.33 1007.61 1007.89 1008.09 1008.37 1008.65 1008.89 1009.17 1009.45 1009.77 1010.17 1010.53 1010.89 1011.17 1011.45 1011.73 1012.05 1012.37 1012.69 1013.05 1013.45 1013.77 1014.01 1014.29 1014.49 1014.73 1015.05 1015.33 1015.61 1015.81 1016.01 1016.29 1016.69 1017.01 1017.37 1017.69 1018.01 1018.37 1018.73 1019.05 1019.33 1019.57 1019.81 1020.01 1020.25 1020.45 1020.57 1020.61 1020.53 1020.45 1020.37 1020.33 1020.29 1020.25 1020.25 1020.29 1020.33 1020.45 1020.49 1020.53 1020.57 1020.57 1020.61
1005.89 1006.05 1006.25 1006.53 1006.85 1007.17 1007.45 1007.73 1008.01 1008.29 1008.61 1008.89 1009.17 1009.45 1009.73 1010.01 1010.37 1010.77 1011.17 1011.45 1011.77 1012.09 1012.37 1012.69 1013.01 1013.33 1013.61 1013.89 1014.05 1014.29 1014.61 1014.97 1015.33 1015.61 1015.85 1016.05 1016.33 1016.61 1016.97 1017.33 1017.69 1017.97 1018.25 1018.61 1018.89 1019.17 1019.41 1019.65 1019.89 1020.05 1020.29 1020.45 1020.53 1020.49 1020.41 1020.29 1020.17 1020.17 1020.17 1020.17 1020.29 1020.41 1020.49 1020.57 1020.61 1020.65 1020.73 1020.73 1020.77
1006.05 1006.21 1006.45 1006.73 1006.97 1007.25 1007.61 1007.89 1008.17 1008.45 1008.77 1009.13 1009.49 1009.81 1010.05 1010.29 1010.61 1011.01 1011.37 1011.73 1012.05 1012.37 1012.73 1013.05 1013.29 1013.53 1013.81 1014.05 1014.21 1014.45 1014.73 1015.17 1015.53 1015.85 1016.13 1016.41 1016.65 1016.93 1017.25 1017.61 1017.93 1018.21 1018.45 1018.73 1019.01 1019.25 1019.49 1019.73 1019.93 1020.13 1020.29 1020.41 1020.41 1020.29 1020.21 1020.13 1020.05 1020.05 1020.17 1020.25 1020.41 1020.57 1020.65 1020.69 1020.73 1020.81 1020.89 1020.93 1020.93
1006.17 1006.29 1006.57 1006.85 1007.13 1007.41 1007.69 1008.05 1008.37 1008.69 1009.01 1009.37 1009.73 1010.13 1010.45 1010.73 1011.01 1011.37 1011.69 1011.97 1012.21 1012.57 1012.93 1013.29 1013.49 1013.73 1014.01 1014.29 1014.57 1014.81 1015.09 1015.45 1015.81 1016.17 1016.45 1016.69 1016.93 1017.21 1017.53 1017.85 1018.17 1018.45 1018.65 1018.89 1019.09 1019.33 1019.53 1019.73 1019.97 1020.17 1020.25 1020.29 1020.25 1020.17 1020.01 1020.01 1020.01 1020.13 1020.25 1020.41 1020.61 1020.69 1020.77 1020.85 1020.89 1020.93 1021.01 1021.05 1021.05
1006.33 1006.41 1006.61 1006.89 1007.25 1007.57 1007.89 1008.17 1008.57 1008.93 1009.33 1009.73 1010.01 1010.37 1010.73 1011.09 1011.49 1011.81 1012.01 1012.17 1012.41 1012.73 1013.09 1013.41 1013.69 1013.97 1014.21 1014.49 1014.89 1015.21 1015.49 1015.77 1016.05 1016.41 1016.73 1017.01 1017.25 1017.49 1017.73 1018.05 1018.33 1018.61 1018.81 1019.01 1019.17 1019.41 1019.61 1019.81 1020.01 1020.09 1020.17 1020.17 1020.09 1020.01 1019.97 1020.01 1020.17 1020.33 1020.49 1020.65 1020.81 1020.89 1020.97 1021.01 1021.05 1021.05 1021.09 1021.17 1021.17
1006.61 1006.61 1006.73 1007.01 1007.37 1007.73 1008.13 1008.45 1008.85 1009.25 1009.65 1010.01 1010.37 1010.73 1011.01 1011.33 1011.77 1012.17 1012.37 1012.45 1012.61 1012.89 1013.29 1013.61 1013.93 1014.25 1014.53 1014.77 1015.13 1015.49 1015.85 1016.13 1016.33 1016.65 1017.01 1017.33 1017.57 1017.77 1018.01 1018.25 1018.53 1018.73 1018.89 1019.05 1019.25 1019.45 1019.65 1019.89 1020.01 1020.05 1020.01 1020.01 1019.97 1019.93 1020.01 1020.17 1020.33 1020.53 1020.73 1020.89 1021.01 1021.13 1021.17 1021.17 1021.17 1021.17 1021.21 1021.25 1021.29
1006.97 1006.97 1007.01 1007.17 1007.53 1007.97 1008.41 1008.81 1009.17 1009.53 1009.89 1010.29 1010.73 1011.05 1011.33 1011.65 1012.05 1012.45 1012.69 1012.73 1012.85 1013.09 1013.45 1013.85 1014.21 1014.57 1014.85 1015.09 1015.37 1015.73 1016.17 1016.45 1016.73 1017.01 1017.29 1017.61 1017.89 1018.05 1018.21 1018.37 1018.61 1018.85 1019.01 1019.13 1019.33 1019.49 1019.69 1019.89 1020.01 1020.01 1019.97 1019.93 1019.93 1020.01 1020.13 1020.29 1020.49 1020.73 1020.89 1021.01 1021.17 1021.29 1021.33 1021.37 1021.33 1021.33 1021.37 1021.41 1021.41
1007.29 1007.33 1007.37 1007.53 1007.85 1008.25 1008.69 1009.17 1009.53 1009.85 1010.17 1010.45 1010.89 1011.33 1011.65 1011.97 1012.33 1012.69 1012.93 1013.17 1013.29 1013.45 1013.73 1014.09 1014.49 1014.89 1015.17 1015.37 1015.65 1016.01 1016.45 1016.81 1017.13 1017.37 1017.61 1017.89 1018.17 1018.29 1018.41 1018.49 1018.65 1018.85 1019.05 1019.21 1019.41 1019.57 1019.73 1019.85 1019.89 1019.89 1019.89 1019.97 1020.01 1020.13 1020.29 1020.45 1020.61 1020.85 1021.01 1021.17 1021.25 1021.37 1021.45 1021.53 1021.57 1021.61 1021.61 1021.65 1021.65
1007.57 1007.69 1007.85 1008.01 1008.29 1008.61 1008.97 1009.45 1009.85 1010.17 1010.45 1010.77 1011.17 1011.53 1011.89 1012.21 1012.57 1012.89 1013.17 1013.45 1013.61 1013.85 1014.09 1014.45 1014.81 1015.17 1015.45 1015.73 1016.01 1016.29 1016.69 1017.05 1017.41 1017.73 1017.97 1018.17 1018.37 1018.49 1018.61 1018.65 1018.73 1018.89 1019.09 1019.33 1019.45 1019.61 1019.73 1019.81 1019.89 1019.89 1019.97 1020.09 1020.17 1020.29 1020.41 1020.61 1020.73 1020.93 1021.13 1021.29 1021.33 1021.45 1021.57 1021.69 1021.73 1021.81 1021.89 1021.93 1022.01
Wind_Speed
9 9 8 8 8 8 9 9 9 9 8 6 4 3 1 1 2 2 1 1 3 3 4 4 5 6 8 9 7 6 6 5 4 3 4 6 9 12 14 14 14 16 17 17 16 14 13 12 11 9 7 5 4 4 4 4 7 9 10 9 8 8 9 11 10 10 10 10 7
11 11 11 10 10 9 8 7 6 5 6 6 5 5 3 0 1 1 1 0 2 3 4 5 6 9 11 12 10 10 9 9 7 5 4 4 7 10 13 13 15 17 18 18 16 13 12 12 12 10 8 6 5 5 4 4 7 9 11 11 8 8 8 9 9 9 9 8 6
11 12 11 9 9 7 5 3 3 4 5 5 5 6 5 3 2 2 2 2 3 4 5 6 8 11 14 15 13 12 12 11 11 9 6 4 5 8 11 13 16 18 18 17 14 13 12 12 11 10 9 7 7 6 5 4 6 8 10 10 7 7 7 7 7 7 7 6 7
7 6 5 2 3 4 4 4 5 6 6 6 7 8 8 6 5 4 4 4 4 5 6 8 9 10 12 15 16 16 14 13 12 10 8 5 4 7 11 14 17 17 17 16 14 14 13 13 10 9 9 9 9 8 6 5 7 7 7 7 6 7 7 6 6 6 6 6 7
5 7 8 8 9 8 7 7 7 7 7 7 9 10 11 10 8 6 5 3 3 4 7 10 10 11 12 16 19 20 18 16 13 11 9 8 6 6 9 14 16 16 16 15 14 14 14 14 10 8 8 9 8 7 6 7 8 8 6 5 5 6 6 6 6 6 6 6 6
10 11 11 11 11 10 8 8 9 8 8 8 10 12 13 13 11 8 5 3 3 6 9 12 12 13 14 18 20 21 20 17 15 13 12 11 9 9 10 13 15 16 15 14 15 15 14 13 9 8 7 8 7 7 7 8 9 8 7 6 5 5 5 6 5 6 6 7 7
12 13 14 13 12 11 10 10 10 10 9 9 11 13 15 18 17 13 8 4 4 5 6 9 12 14 16 19 20 21 19 17 16 16 16 14 12 11 11 12 15 15 15 14 14 13 12 12 9 8 7 7 7 7 8 8 9 9 8 7 5 5 5 6 5 6 8 10 10
13 15 15 15 15 14 14 13 12 11 10 9 11 14 17 20 22 19 14 7 4 3 4 8 13 16 18 20 21 21 20 20 18 17 17 16 14 13 12 13 14 13 12 11 11 11 10 9 8 8 8 7 6 6 8 9 10 10 10 9 6 5 5 5 5 7 8 11 10
11 13 14 15 16 16 16 15 14 13 12 11 13 15 17 20 23 21 17 10 6 5 6 9 14 18 20 22 22 21 20 19 19 18 18 18 16 14 12 12 12 11 10 8 8 9 9 8 7 7 6 6 6 7 8 11 12 12 11 9 7 6 6 6 6 7 9 11 11
11 12 12 14 15 16 17 17 16 16 15 14 14 15 16 18 20 20 17 12 9 8 9 11 15 18 21 22 22 20 19 18 18 18 19 19 18 16 13 11 11 11 9 8 6 7 8 8 8 7 7 6 7 8 9 11 12 12 11 8 8 9 9 7 7 8 9 10 11
13 13 13 13 15 16 17 18 17 16 16 15 15 15 15 17 18 18 17 14 12 11 11 12 16 18 20 20 19 19 18 17 17 18 19 20 19 17 14 12 11 11 9 8 7 6 7 8 9 9 9 7 7 7 9 10 12 13 12 9 10 11 10 8 7 7 7 9 10
14 14 14 15 16 17 18 17 16 16 16 16 16 15 15 16 19 19 18 16 14 12 11 12 15 18 19 18 18 18 18 18 18 18 19 20 20 18 16 13 12 10 9 8 7 7 7 7 9 9 9 7 6 6 7 10 12 13 13 11 11 11 10 9 7 6 6 8 9
14 14 14 15 17 17 18 17 16 16 16 17 16 16 16 17 20 21 20 18 14 11 10 11 14 16 18 18 17 16 16 17 18 19 19 20 20 19 17 14 12 10 8 7 7 7 7 7 8 8 9 8 6 6 7 9 11 12 12 12 11 11 10 9 8 7 8 8 9
14 14 15 15 16 16 16 16 15 15 16 17 17 17 17 18 20 20 20 18 15 13 11 11 11 12 14 17 17 16 16 16 18 20 21 20 19 18 16 14 12 10 8 7 7 8 8 7 7 7 8 9 8 7 8 9 10 11 12 12 12 11 10 9 9 9 9 10 10
13 14 15 15 15 15 15 14 13 13 14 16 16 16 17 18 19 19 19 19 16 14 13 12 11 11 13 16 17 17 17 16 18 20 21 21 20 18 16 14 13 11 10 9 8 8 8 7 7 7 8 9 9 8 8 9 9 10 11 11 11 11 10 9 9 9 10 10 10
13 14 14 15 14 14 13 13 11 11 12 13 14 15 15 16 17 18 19 19 17 15 14 14 13 12 13 14 16 17 17 16 17 19 20 20 19 18 16 15 14 13 12 11 10 9 8 8 8 8 9 9 9 9 9 9 10 10 10 11 10 10 10 9 9 9 9 10 9
12 13 14 14 14 14 14 12 11 11 11 12 13 13 13 13 14 16 17 18 17 16 16 16 14 14 13 13 14 15 16 15 16 17 18 18 19 18 17 15 14 13 13 13 12 11 10 9 9 9 9 9 9 9 9 10 10 10 10 10 10 9 9 8 8 8 9 9 9
12 13 14 14 15 15 15 14 13 13 12 13 12 12 12 12 13 14 15 16 18 18 18 17 15 14 15 15 14 13 13 14 15 15 16 17 18 17 17 15 14 13 13 13 12 12 11 11 11 10 9 9 9 9 9 9 10 10 10 9 9 8 8 8 8 8 8 8 8
13 13 14 15 16 16 17 17 16 15 14 13 13 12 12 13 14 14 15 16 17 18 18 17 15 14 15 16 15 14 13 14 16 16 16 17 17 17 16 15 14 13 13 13 13 13 12 12 12 11 10 9 9 9 9 9 9 9 9 8 8 8 7 7 7 7 7 7 7
13 14 15 16 17 17 17 18 17 16 15 14 14 14 14 13 14 16 17 17 17 17 18 17 16 15 15 16 16 15 14 14 16 17 17 16 16 16 16 15 14 14 13 13 13 13 13 12 12 11 10 10 10 10 9 9 8 8 8 7 7 7 7 6 6 6 6 6 6
13 13 14 15 17 17 18 18 18 17 17 16 16 16 15 14 15 16 17 17 17 17 17 17 17 17 17 17 17 16 15 13 15 16 16 16 16 16 15 15 14 13 13 13 13 14 13 12 11 11 11 11 10 10 9 8 8 7 7 6 6 6 6 6 5 5 5 5 5
13 13 14 15 16 17 18 18 18 18 18 17 17 17 16 16 15 16 16 17 17 17 17 17 17 17 17 18 18 17 16 14 15 15 15 15 15 14 14 14 15 14 13 13 13 13 13 12 12 11 11 10 9 9 8 7 7 7 7 6 6 6 5 5 4 4 4 4 5
14 14 14 15 16 17 18 18 18 18 18 18 17 17 17 16 16 16 16 16 17 17 17 16 16 17 17 18 18 18 18 17 16 16 15 15 15 14 14 14 15 14 13 11 11 12 12 12 12 11 10 9 8 8 8 7 7 7 7 7 6 5 5 4 4 4 4 4 4
15 15 14 14 16 17 18 18 18 19 18 18 18 17 17 17 17 17 17 17 17 17 16 15 15 17 18 18 19 19 20 19 19 18 17 16 15 15 14 13 13 12 11 9 10 11 11 11 11 10 9 7 7 7 7 7 7 7 7 7 6 6 5 4 4 4 4 4 4
16 16 15 16 17 17 18 18 18 18 18 18 18 18 18 18 17 17 18 18 18 18 18 17 17 17 17 18 18 18 19 20 20 19 18 17 16 15 13 12 11 9 8 9 14 15 15 13 11 9 7 6 6 6 6 6 6 6 6 6 6 6 5 5 5 5 5 5 5
16 16 17 17 18 18 18 18 18 18 18 18 18 18 18 18 18 18 19 19 18 18 18 18 17 16 16 16 17 17 17 17 18 18 18 17 16 14 13 10 8 7 8 11 16 18 18 16 13 9 6 5 5 6 6 6 6 6 6 6 6 6 6 6 6 6 7 7 7
16 16 17 17 18 18 18 18 18 18 18 18 18 18 18 17 17 18 19 19 19 18 18 17 16 16 15 16 17 18 17 16 17 18 18 17 16 14 12 10 8 7 9 13 16 17 17 16 13 10 7 5 5 5 5 5 6 6 6 6 6 6 6 7 7 8 8 8 8
16 17 17 18 18 18 18 18 18 18 18 18 18 19 19 19 19 19 19 19 18 18 16 15 14 13 12 13 16 17 17 16 16 16 16 16 15 14 12 10 8 9 12 16 17 16 15 14 13 11 9 6 5 5 5 5 6 6 6 6 6 6 6 6 7 8 9 9 9
17 18 18 19 19 19 18 18 18 18 18 19 19 19 19 19 19 19 18 18 18 16 15 12 11 11 12 13 15 16 17 16 15 15 15 15 15 13 12 11 11 12 15 18 17 16 15 14 13 12 10 8 5 4 4 4 5 5 5 5 5 5 6 6 6 7 8 9 8
18 18 19 19 19 19 18 18 18 18 18 18 19 19 19 19 18 18 18 17 17 15 13 12 12 13 14 15 15 15 14 14 14 14 15 15 15 13 12 12 11 13 16 18 17 16 15 14 13 12 11 9 6 4 4 4 4 5 5 5 5 6 7 7 7 8 8 8 8
18 19 19 20 19 19 19 18 18 18 18 18 19 19 19 18 18 17 17 16 16 15 15 15 16 17 16 15 14 14 14 14 13 13 14 15 14 14 13 12 12 13 15 18 17 16 15 14 13 12 11 10 7 5 4 5 5 5 5 6 6 7 7 7 8 9 9 9 9
18 19 19 20 20 19 19 18 18 18 19 19 19 19 19 18 17 17 16 16 17 17 17 18 18 18 17 15 15 15 15 14 14 13 13 14 14 14 13 12 12 13 15 18 17 16 15 15 14 13 12 10 7 6 5 6 6 6 7 8 9 9 8 8 8 9 10 10 9
17 19 19 20 20 19 19 18 18 18 19 19 19 19 18 18 18 17 16 16 16 17 18 18 18 17 17 16 16 16 15 15 14 14 14 14 14 14 13 12 11 12 15 18 17 16 16 15 14 14 12 11 8 6 6 7 7 7 8 9 10 10 10 10 10 10 10 10 9
18 19 20 20 20 19 19 18 18 18 19 18 18 18 18 18 18 17 16 15 15 15 16 16 16 16 16 16 16 16 15 14 14 14 13 13 13 13 12 10 9 12 16 18 17 16 16 15 15 14 13 11 8 7 7 8 8 9 9 10 11 11 11 11 11 10 10 9 9
18 19 20 20 19 19 19 19 19 19 19 19 18 18 18 18 18 17 16 15 15 15 15 15 15 15 15 15 16 16 16 15 14 13 12 12 12 13 12 10 10 13 17 17 17 16 16 15 15 14 13 10 8 7 8 9 10 11 11 12 11 11 11 11 10 10 9 9 8
18 20 20 20 20 20 19 19 19 19 19 19 19 18 17 17 16 16 16 16 16 16 16 15 16 16 16 16 15 15 15 14 13 12 12 11 12 12 12 11 12 14 17 17 17 16 16 15 15 14 12 9 7 7 8 9 10 11 12 12 11 11 10 10 10 10 9 8 8
18 19 21 21 20 20 20 20 20 19 19 19 18 18 18 17 16 15 15 16 17 17 17 16 16 16 16 16 15 14 13 13 13 12 12 11 11 12 12 12 12 13 15 17 17 16 16 16 15 14 11 8 7 7 8 8 9 10 11 11 10 10 9 8 9 9 9 9 9
16 18 20 21 20 20 20 19 20 20 19 19 18 18 17 17 16 14 14 14 16 17 17 17 16 16 16 16 15 14 13 12 13 12 12 11 11 11 12 12 12 12 13 16 17 17 16 16 15 13 11 8 8 8 8 8 9 9 9 9 9 9 8 7 7 8 9 11 12
15 17 19 20 21 20 20 20 19 19 19 19 18 18 17 16 15 13 13 13 15 17 18 17 17 16 15 15 15 15 14 13 12 12 12 11 11 11 11 12 11 11 13 16 17 17 17 17 16 14 11 9 8 8 8 8 9 9 9 8 8 8 8 7 7 7 9 12 15
15 16 18 20 20 20 20 20 19 19 18 19 18 18 17 16 15 14 13 13 15 16 17 18 17 16 15 15 15 15 14 13 12 12 11 11 12 12 12 11 12 12 14 16 18 18 18 17 16 14 12 9 8 8 8 8 9 9 8 7 7 7 7 7 7 7 8 9 12
15 16 18 19 19 20 20 20 19 18 17 18 18 17 16 16 15 15 14 14 15 15 16 16 17 17 15 14 14 14 14 13 12 11 10 11 11 12 11 11 12 13 14 16 18 18 18 17 17 15 12 9 8 7 7 7 8 9 9 8 7 7 7 7 7 7 7 7 8
Wind_Direction
232 232 233 234 234 234 233 232 231 228 220 195 157 141 154 272 280 276 253 170 144 136 131 124 112 97 85 76 74 88 108 117 142 181 190 167 142 133 131 130 125 117 111 107 107 108 109 109 106 103 100 98 90 85 84 93 98 98 96 96 97 96 96 96 97 97 96 96 99
233 234 235 237 237 236 234 232 224 212 198 180 153 139 135 154 299 305 309 116 108 106 105 101 98 96 94 89 81 78 81 86 87 83 83 106 121 125 127 127 120 115 111 110 112 115 116 115 111 110 109 109 104 96 88 86 96 97 97 97 99 98 96 96 99 101 101 101 101
237 236 236 237 236 231 221 194 163 154 151 145 127 116 108 94 60 29 23 42 69 84 94 100 102 103 104 103 96 87 80 75 73 68 64 70 107 121 123 120 114 111 110 111 115 117 118 115 112 111 112 113 110 105 99 89 94 96 98 99 101 100 100 101 105 105 102 99 97
243 237 225 168 125 120 121 116 115 117 118 116 107 101 94 83 66 50 42 47 67 86 101 109 108 107 106 106 102 96 88 77 73 69 66 64 89 109 113 111 108 107 108 110 113 114 113 110 107 107 109 112 110 110 108 103 96 94 96 99 101 103 105 108 109 106 102 99 96
83 87 90 89 88 88 91 97 104 109 112 115 112 108 102 93 80 64 51 51 77 101 109 110 108 107 105 104 102 98 92 83 77 73 68 58 59 77 93 100 102 103 104 106 108 108 106 103 102 103 107 109 109 111 113 112 103 98 96 94 98 103 108 110 109 107 105 102 98
94 92 91 91 92 91 92 97 103 107 111 115 117 116 113 109 100 89 74 65 87 101 106 106 107 106 104 101 98 95 91 87 83 78 71 60 51 55 71 86 93 97 100 104 105 105 104 103 103 104 107 108 110 115 118 115 109 104 100 94 95 100 105 109 109 107 105 103 101
113 110 108 107 108 108 109 110 108 107 108 110 115 117 118 116 112 108 101 89 89 97 105 108 110 109 106 101 97 95 94 92 88 83 78 71 61 58 63 75 84 90 96 102 104 106 107 109 109 111 112 111 115 120 122 117 113 109 105 101 98 98 101 106 107 105 104 103 102
122 122 123 124 124 123 122 120 115 113 112 115 118 119 118 117 116 114 112 107 103 108 113 112 112 111 108 104 102 100 99 97 94 91 88 83 74 65 60 63 70 77 85 94 102 107 109 109 111 114 116 116 119 123 124 120 116 112 109 107 103 100 100 105 106 106 105 105 102
120 124 127 129 128 126 124 120 116 115 116 119 120 120 118 116 115 115 115 117 118 118 114 111 111 110 108 106 104 104 103 102 101 99 96 91 83 72 60 55 56 59 63 69 86 98 103 103 103 107 112 117 122 127 128 124 117 114 111 109 107 103 98 98 102 105 108 108 106
117 119 121 122 122 120 118 113 111 112 114 116 117 116 115 113 112 113 114 118 119 119 117 116 113 110 107 105 105 106 106 106 105 103 100 95 89 80 68 58 53 51 49 46 57 74 87 93 94 95 98 106 117 124 126 123 117 113 111 109 106 101 96 90 94 100 104 107 107
120 121 121 120 119 117 114 111 110 112 114 115 115 114 112 109 108 108 110 114 117 121 123 123 117 112 109 106 107 109 110 111 110 106 103 99 94 87 79 68 59 54 48 41 41 52 66 81 90 93 95 98 107 115 117 115 111 108 107 106 103 99 95 90 89 92 97 101 103
123 124 124 124 123 120 116 114 115 116 118 118 118 115 111 108 107 107 109 112 116 120 123 122 117 114 111 110 112 114 115 116 114 109 104 101 98 94 88 79 71 63 55 46 45 50 61 75 89 96 99 98 100 103 106 107 104 104 104 103 101 99 96 94 92 93 95 97 98
125 127 127 127 125 122 120 119 120 122 124 124 123 119 115 112 111 111 111 113 115 117 116 113 111 112 113 115 117 118 119 119 116 112 107 103 101 98 95 90 85 78 71 62 61 64 70 76 89 97 101 100 97 97 99 101 102 103 104 103 101 99 100 100 99 98 97 94 95
128 130 130 129 126 124 122 122 123 126 128 129 127 124 120 117 117 116 116 117 118 117 113 107 105 108 113 118 119 119 119 118 115 112 109 106 105 103 102 100 98 94 88 82 78 78 81 84 88 94 97 97 94 92 93 95 99 102 104 105 104 104 105 105 105 102 99 97 96
132 132 132 130 127 123 121 122 124 128 130 130 129 126 124 122 122 121 120 121 122 120 116 110 107 107 111 114 116 116 116 114 113 111 109 108 108 108 108 109 107 104 100 95 90 88 88 90 90 90 91 92 91 90 89 90 94 97 100 103 105 106 108 108 106 104 102 102 100
135 134 132 129 125 122 121 121 124 127 128 128 127 125 123 123 124 124 124 125 124 121 117 115 113 111 110 110 111 111 111 111 110 109 109 110 111 111 112 112 111 110 107 104 100 97 93 91 89 88 87 88 88 88 87 88 90 92 94 98 101 104 106 106 105 104 103 103 103
137 135 131 126 123 121 120 120 121 122 123 121 120 118 118 120 123 125 126 126 124 121 119 117 117 116 114 110 108 108 108 109 108 108 109 111 112 112 112 111 111 110 110 110 107 103 98 92 88 85 84 85 85 85 85 86 87 88 90 93 95 98 100 101 102 103 103 103 104
139 134 129 124 122 121 120 119 118 117 116 114 112 112 112 115 119 122 123 123 122 120 119 118 118 118 116 112 108 107 106 107 106 106 107 108 109 109 109 108 108 107 108 108 106 103 98 92 88 85 83 83 82 82 82 83 84 86 87 89 91 93 94 96 98 100 102 103 106
139 133 128 124 122 121 119 118 117 115 113 111 109 107 108 112 117 118 118 118 119 119 119 118 116 115 113 110 107 105 104 104 103 103 102 103 103 103 104 105 104 103 103 102 100 96 93 89 88 87 85 84 82 79 78 79 81 82 84 85 87 88 89 90 92 96 101 106 111
135 130 126 124 122 120 119 117 116 115 113 112 110 109 109 112 114 115 116 118 118 117 117 116 114 111 109 107 104 102 101 101 101 100 99 99 99 100 102 103 102 100 98 96 94 91 89 87 88 88 87 86 83 80 78 78 79 80 82 84 85 86 86 87 90 96 103 111 117
128 125 122 121 120 119 118 117 116 116 115 114 113 112 112 112 111 111 112 115 115 114 113 113 112 110 108 105 102 100 98 97 97 97 96 96 97 98 100 100 98 95 93 92 92 91 90 89 89 88 87 85 83 83 83 82 83 83 84 85 85 85 86 89 94 101 109 116 122
123 120 118 117 117 117 117 117 117 117 117 116 115 114 112 110 108 107 108 109 109 108 108 108 108 107 105 104 102 100 98 95 93 92 92 93 93 94 94 93 92 90 89 88 90 92 93 92 89 86 85 84 86 89 92 93 93 93 92 92 91 92 94 99 105 112 117 121 124
122 119 117 115 116 116 117 118 118 118 117 116 115 113 111 109 108 106 105 104 104 104 103 103 102 102 102 101 101 101 99 96 93 90 89 89 89 88 87 87 87 88 88 89 92 95 95 93 88 84 84 87 92 97 102 105 106 107 106 106 106 107 110 114 118 120 121 121 122
121 120 119 118 118 118 119 119 119 118 117 116 115 113 111 109 108 106 104 102 102 102 102 101 100 100 100 99 100 100 100 99 97 93 90 88 86 85 83 82 85 87 91 94 97 98 97 93 89 87 87 92 100 106 111 115 117 119 120 121 120 120 120 120 119 117 114 112 113
121 121 120 121 121 121 120 120 119 118 117 116 115 113 111 110 108 107 105 103 102 102 102 102 101 101 100 99 99 99 99 100 99 97 94 89 87 85 84 84 87 90 96 101 102 100 97 95 94 94 98 104 111 116 120 123 127 130 130 130 128 125 121 116 111 106 103 101 99
120 121 121 122 122 121 120 120 119 118 117 116 114 113 112 110 109 108 106 105 104 104 104 103 103 102 102 101 100 98 98 98 98 98 96 93 91 89 89 90 94 99 104 107 105 103 101 101 103 106 113 121 125 127 128 130 134 136 135 133 130 126 122 115 107 101 96 93 91
120 121 122 121 120 120 120 120 119 118 116 116 114 113 113 112 110 109 108 107 107 106 104 103 103 103 102 101 100 99 98 98 97 97 97 97 96 96 97 99 103 106 107 106 105 104 106 110 116 122 130 135 137 137 136 136 138 138 135 132 129 125 120 113 106 99 94 90 88
123 122 122 121 120 120 120 119 118 117 117 116 116 115 114 112 111 110 110 110 109 107 106 104 105 104 102 99 99 100 100 100 100 99 99 100 101 103 104 106 107 106 105 104 104 107 112 121 130 138 145 146 144 141 139 139 139 137 133 128 124 119 114 108 102 97 94 90 87
125 124 123 122 121 120 120 120 119 118 118 117 116 115 114 113 112 112 111 111 110 109 109 109 108 104 101 100 101 101 101 102 103 104 105 105 105 106 106 106 105 104 104 105 107 113 120 130 138 144 148 147 142 139 141 141 138 134 129 124 119 114 107 101 97 94 92 90 87
127 126 125 123 122 122 122 121 120 119 118 117 117 116 115 113 112 112 111 111 110 110 110 112 108 105 103 103 103 103 103 104 105 107 108 109 108 106 105 104 104 105 107 109 114 120 127 133 137 140 142 142 139 139 143 143 138 131 124 118 112 105 99 93 90 88 88 87 83
129 127 126 124 123 122 122 122 121 120 119 119 118 116 115 113 112 111 110 109 108 108 108 107 105 104 103 104 104 105 106 106 105 106 107 108 106 105 103 102 103 106 111 116 120 124 128 130 132 135 138 143 144 146 145 139 130 122 114 108 100 94 89 85 82 81 82 82 80
129 127 126 124 123 122 122 121 121 120 120 119 117 115 113 111 110 109 108 108 108 108 107 105 104 104 104 104 104 105 105 104 104 104 104 104 104 103 102 101 103 108 116 121 123 125 127 128 129 132 136 140 140 137 132 124 116 108 101 96 90 86 82 80 79 78 78 78 78
129 127 125 124 123 122 122 121 121 120 118 117 115 113 111 109 108 107 106 107 108 108 108 107 107 107 107 108 106 105 102 101 101 101 101 101 101 101 101 100 103 111 119 123 124 125 125 126 127 128 130 131 129 126 123 116 109 102 95 89 84 81 79 79 79 78 78 78 78
129 127 125 123 123 122 122 121 120 118 116 114 112 111 110 110 109 108 108 107 107 106 106 106 107 107 108 108 107 104 102 100 100 100 100 100 101 101 101 101 106 116 121 123 124 124 124 125 125 124 124 125 124 120 115 109 102 95 90 86 83 80 79 78 78 78 78 78 79
130 127 125 123 123 122 121 120 119 117 114 112 111 110 109 109 109 109 109 109 107 105 103 103 103 103 103 102 101 101 101 101 101 100 101 102 102 103 104 106 110 118 122 122 123 124 123 123 123 123 123 123 121 115 108 101 95 90 87 85 82 81 80 80 79 78 78 78 78
130 128 126 124 123 122 121 120 118 116 114 112 111 110 108 107 107 108 109 110 108 105 104 103 102 102 100 99 98 99 100 103 103 102 102 103 105 106 108 110 114 119 122 123 123 123 123 122 122 123 123 122 117 109 101 94 89 86 83 82 80 78 78 79 80 80 79 78 77
131 128 126 124 123 122 121 120 118 115 114 112 112 111 110 108 107 108 109 110 108 106 105 104 102 102 101 101 100 99 99 101 102 103 103 104 106 109 111 113 115 118 121 123 123 122 122 122 123 123 122 119 112 103 96 90 87 85 82 80 78 75 75 77 79 80 80 78 76
130 128 126 124 123 122 121 119 117 115 114 113 112 111 111 109 109 109 109 109 108 107 106 104 102 101 101 102 100 98 97 96 99 101 103 104 106 110 113 114 116 117 120 122 122 122 122 122 122 121 119 112 105 99 94 91 90 88 85 82 79 75 72 71 73 75 76 76 75
128 126 124 123 122 120 119 117 116 115 114 113 112 112 111 109 108 108 107 106 107 107 106 104 103 102 102 102 100 98 97 96 97 100 104 106 109 113 115 115 116 117 118 120 121 121 121 121 119 115 111 103 100 98 96 95 94 92 90 88 84 78 73 70 69 68 70 71 72
125 123 121 120 119 118 117 116 115 114 114 113 113 112 110 109 108 106 105 103 104 104 104 104 104 103 103 102 101 100 99 98 98 101 105 109 113 115 116 115 116 116 117 119 120 120 119 118 114 110 105 99 98 98 99 99 97 96 93 91 89 84 78 73 69 66 64 64 66
121 119 117 116 116 116 115 114 113 112 111 111 111 110 109 108 107 106 106 104 103 103 103 103 103 103 102 101 100 100 99 98 97 99 103 109 112 115 115 114 115 115 115 117 118 117 116 113 110 107 104 100 99 99 100 101 99 97 95 93 91 88 85 79 74 69 65 61 60